GW4452 Weather Reports


Display with metric or nautical units.
time (UTC)temp
F
wind
direction
speed
MPH
gust
MPH
rain 1hr
in
rain 24hr
in
rain mn
in
humidity
%
barometer
mb
20260505215204 70 127 2.0 5.0 0.00 0.00 0.00 92 1016.6
20260505214704 70 95 2.0 5.0 0.00 0.00 0.00 91 1016.8
20260505214204 70 339 1.0 5.0 0.00 0.00 0.00 91 1016.8
20260505213204 70 145 0.0 3.0 0.00 0.00 0.00 91 1016.8
20260505212204 70 194 0.0 2.0 0.00 0.00 0.00 90 1016.9
20260505211704 71 102 0.0 2.0 0.00 0.00 0.00 90 1017.0
20260505211205 70 239 0.0 3.0 0.00 0.00 0.00 90 1017.3
20260505210704 70 280 2.0 3.0 0.00 0.00 0.00 90 1017.2
20260505205704 71 132 0.0 2.0 0.00 0.00 0.00 89 1017.3
20260505205205 71 294 1.0 2.0 0.00 0.00 0.00 90 1017.3
20260505204704 71 57 1.0 2.0 0.00 0.00 0.00 89 1017.3
20260505204204 71 201 2.0 3.0 0.00 0.00 0.00 89 1017.3
20260505203205 70 83 1.0 3.0 0.00 0.00 0.00 89 1017.3
20260505202704 70 310 1.0 3.0 0.00 0.00 0.00 89 1017.5
20260505202204 70 342 0.0 3.0 0.00 0.00 0.00 89 1017.3
20260505201705 70 159 0.0 2.0 0.00 0.00 0.00 89 1017.4
20260505201205 70 2 1.0 2.0 0.00 0.00 0.00 89 1017.3
20260505200705 70 117 1.0 2.0 0.00 0.00 0.00 88 1017.4
20260505200204 70 218 0.0 2.0 0.00 0.00 0.00 88 1017.5
20260505195704 70 19 0.0 2.0 0.00 0.00 0.00 88 1017.6
20260505194704 70 35 0.0 5.0 0.00 0.00 0.00 88 1017.3
20260505194204 70 59 0.0 2.0 0.00 0.00 0.00 88 1017.4
20260505193704 70 247 0.0 2.0 0.00 0.00 0.00 88 1017.5
20260505193205 70 27 0.0 2.0 0.00 0.00 0.00 88 1017.5
20260505192704 70 215 0.0 2.0 0.00 0.00 0.00 87 1017.6
20260505192204 70 202 1.0 2.0 0.00 0.00 0.00 87 1017.6
20260505191704 70 303 1.0 2.0 0.00 0.00 0.00 87 1017.6
20260505191203 71 349 1.0 2.0 0.00 0.00 0.00 87 1017.6
20260505190204 71 43 0.0 5.0 0.00 0.00 0.00 87 1017.6
20260505185204 71 313 0.0 3.0 0.00 0.00 0.00 87 1017.6
20260505184704 71 37 2.0 3.0 0.00 0.00 0.00 87 1017.6
20260505184205 71 223 1.0 3.0 0.00 0.00 0.00 87 1017.6
20260505183705 71 21 1.0 3.0 0.00 0.00 0.00 87 1017.6
20260505183204 70 340 2.0 3.0 0.00 0.00 0.00 87 1017.6
20260505181704 71 180 1.0 2.0 0.00 0.00 0.00 86 1017.6
20260505181204 71 102 0.0 2.0 0.00 0.00 0.00 86 1017.5
20260505180704 71 267 1.0 2.0 0.00 0.00 0.00 85 1017.6
20260505180205 71 1 0.0 2.0 0.00 0.00 0.00 85 1017.3
20260505175704 71 159 1.0 3.0 0.00 0.00 0.00 85 1017.3
20260505175204 71 194 1.0 5.0 0.00 0.00 0.00 85 1017.3
20260505174704 71 134 2.0 5.0 0.00 0.00 0.00 85 1017.6
20260505174204 71 102 1.0 3.0 0.00 0.00 0.00 85 1017.6
20260505173704 71 70 1.0 3.0 0.00 0.00 0.00 84 1017.6
20260505173204 71 84 2.0 3.0 0.00 0.00 0.00 84 1017.4
20260505172705 71 94 2.0 5.0 0.00 0.00 0.00 84 1017.6
20260505171706 71 117 1.0 8.0 0.00 0.00 0.00 83 1017.6
20260505171204 71 73 2.0 8.0 0.00 0.00 0.00 83 1017.3
20260505170704 71 66 2.0 5.0 0.00 0.00 0.00 83 1017.4
20260505170204 71 128 2.0 5.0 0.00 0.00 0.00 82 1017.3
20260505165705 72 130 3.0 6.0 0.00 0.00 0.00 82 1017.3
20260505165205 72 83 1.0 8.0 0.00 0.00 0.00 82 1017.3
20260505164705 72 128 3.0 8.0 0.00 0.00 0.00 82 1017.0
20260505164204 72 155 4.0 9.0 0.00 0.00 0.00 82 1016.9
20260505163704 72 90 2.0 7.0 0.00 0.00 0.00 82 1016.9
20260505162204 72 134 3.0 6.0 0.00 0.00 0.00 81 1016.9
20260505161704 72 149 3.0 7.0 0.00 0.00 0.00 81 1016.9
20260505161205 72 288 2.0 9.0 0.00 0.00 0.00 80 1016.9
20260505160204 72 107 1.0 6.0 0.00 0.00 0.00 80 1016.9
20260505153205 72 126 5.0 9.0 0.00 0.00 0.00 80 1016.5
20260505152704 72 106 3.0 7.0 0.00 0.00 0.00 81 1016.7
20260505152204 72 84 1.0 8.0 0.00 0.00 0.00 81 1016.5
20260505151705 72 169 2.0 8.0 0.00 0.00 0.00 81 1016.5
20260505140204 73 116 3.0 9.0 0.00 0.00 0.00 78 1015.9
20260505130205 75 128 3.0 13.0 0.00 0.00 0.00 72 1015.5
20260505124704 76 127 4.0 9.0 0.00 0.00 0.00 70 1015.5
20260505123704 76 141 5.0 14.0 0.00 0.00 0.00 70 1015.2
20260505123204 77 142 5.0 14.0 0.00 0.00 0.00 67 1015.2
20260505122704 77 91 5.0 8.0 0.00 0.00 0.00 68 1015.2
20260505122205 77 130 3.0 7.0 0.00 0.00 0.00 67 1015.0
20260505121705 77 114 5.0 10.0 0.00 0.00 0.00 65 1015.2
20260505121205 77 306 5.0 9.0 0.00 0.00 0.00 64 1014.9
20260505120704 78 270 2.0 10.0 0.00 0.00 0.00 65 1015.2
20260505120204 78 104 6.0 10.0 0.00 0.00 0.00 65 1015.1
20260505115705 78 100 4.0 9.0 0.00 0.00 0.00 65 1015.1
20260505115203 78 49 3.0 10.0 0.00 0.00 0.00 64 1015.2
20260505114704 78 114 5.0 10.0 0.00 0.00 0.00 63 1015.1
20260505114204 78 131 5.0 9.0 0.00 0.00 0.00 63 1015.0
20260505113704 78 238 3.0 12.0 0.00 0.00 0.00 62 1014.9
20260505112704 79 133 4.0 9.0 0.00 0.00 0.00 62 1014.6
20260505112204 78 18 3.0 10.0 0.00 0.00 0.00 61 1014.9
20260505111705 79 143 4.0 10.0 0.00 0.00 0.00 60 1014.9
20260505111204 80 112 4.0 12.0 0.00 0.00 0.00 59 1014.7
20260505110704 80 57 4.0 12.0 0.00 0.00 0.00 57 1014.5
20260505102205 81 59 2.0 10.0 0.00 0.00 0.00 58 1014.6
20260505101704 80 316 5.0 10.0 0.00 0.00 0.00 57 1014.6
20260505101204 80 130 5.0 9.0 0.00 0.00 0.00 58 1014.9
20260505100704 81 115 5.0 12.0 0.00 0.00 0.00 58 1014.9
20260505100204 80 139 3.0 12.0 0.00 0.00 0.00 59 1014.8
20260505095706 81 122 3.0 10.0 0.00 0.00 0.00 58 1014.7
20260505095205 81 125 3.0 10.0 0.00 0.00 0.00 60 1014.8
20260505094704 81 90 4.0 9.0 0.00 0.00 0.00 60 1014.7
20260505093704 81 141 4.0 8.0 0.00 0.00 0.00 60 1014.9
20260505093206 81 122 3.0 9.0 0.00 0.00 0.00 59 1015.1
20260505092704 81 155 6.0 9.0 0.00 0.00 0.00 59 1015.0
20260505092204 81 98 3.0 9.0 0.00 0.00 0.00 61 1015.1
20260505091204 80 185 4.0 10.0 0.00 0.00 0.00 60 1015.2
20260505090704 80 290 4.0 10.0 0.00 0.00 0.00 63 1014.9
20260505090204 80 124 5.0 13.0 0.00 0.00 0.00 63 1015.2
20260505085704 81 237 5.0 7.0 0.00 0.00 0.00 61 1015.2
20260505085205 81 329 2.0 15.0 0.00 0.00 0.00 62 1015.2
20260505084704 82 179 5.0 12.0 0.00 0.00 0.00 61 1015.2
20260505084204 81 19 3.0 7.0 0.00 0.00 0.00 62 1015.4
20260505083704 81 129 4.0 12.0 0.00 0.00 0.00 61 1015.3
20260505083204 81 359 3.0 12.0 0.00 0.00 0.00 60 1015.5
20260505082704 81 212 4.0 12.0 0.00 0.00 0.00 60 1015.6
20260505082204 81 103 3.0 9.0 0.00 0.00 0.00 60 1015.6
20260505081704 81 102 4.0 9.0 0.00 0.00 0.00 61 1015.8
20260505081204 80 237 3.0 12.0 0.00 0.00 0.00 61 1015.9
20260505080705 80 131 4.0 9.0 0.00 0.00 0.00 62 1015.9
20260505080205 79 301 7.0 9.0 0.00 0.00 0.00 62 1015.9
20260505075704 80 99 4.0 13.0 0.00 0.00 0.00 61 1015.9
20260505075204 81 241 4.0 8.0 0.00 0.00 0.00 60 1015.9
20260505074704 80 36 3.0 12.0 0.00 0.00 0.00 61 1015.9
20260505074205 80 86 5.0 13.0 0.00 0.00 0.00 62 1015.9
20260505073204 79 135 8.0 15.0 0.00 0.00 0.00 63 1015.9
20260505072705 79 76 5.0 14.0 0.00 0.00 0.00 64 1015.9
20260505072204 79 105 7.0 14.0 0.00 0.00 0.00 63 1016.2
20260505071704 79 114 8.0 10.0 0.00 0.00 0.00 63 1016.2
20260505071204 80 103 5.0 13.0 0.00 0.00 0.00 63 1016.3
20260505070204 80 85 4.0 12.0 0.00 0.00 0.00 64 1016.4
20260505065704 80 133 5.0 10.0 0.00 0.00 0.00 64 1016.6
20260505065204 81 118 5.0 10.0 0.00 0.00 0.00 64 1016.4
20260505064705 80 140 3.0 9.0 0.00 0.00 0.00 65 1016.6
20260505064204 79 332 2.0 15.0 0.00 0.00 0.00 66 1016.6
20260505063704 79 107 5.0 9.0 0.00 0.00 0.00 67 1016.9
20260505063204 78 137 5.0 14.0 0.00 0.00 0.00 67 1016.8
20260505062204 80 140 8.0 13.0 0.00 0.00 0.00 64 1016.7
20260505061704 80 39 4.0 10.0 0.00 0.00 0.00 64 1016.8
20260505061204 80 110 3.0 8.0 0.00 0.00 0.00 64 1016.9
20260505060705 79 206 2.0 9.0 0.00 0.00 0.00 66 1016.9
20260505060205 79 132 5.0 10.0 0.00 0.00 0.00 65 1017.2
20260505055204 78 134 7.0 15.0 0.00 0.00 0.00 65 1017.3
20260505054205 79 68 3.0 10.0 0.00 0.00 0.00 64 1016.9
20260505053705 79 158 4.0 13.0 0.00 0.00 0.00 67 1017.3
20260505053204 78 133 5.0 13.0 0.00 0.00 0.00 66 1017.3
20260505052204 78 266 1.0 12.0 0.00 0.00 0.00 68 1017.3
20260505051704 78 130 3.0 12.0 0.00 0.00 0.00 68 1017.3
20260505051204 77 125 2.0 8.0 0.00 0.00 0.00 70 1017.4
20260505050704 77 103 3.0 10.0 0.00 0.00 0.00 70 1017.3
20260505050204 78 127 2.0 10.0 0.00 0.00 0.00 70 1017.3
20260505041704 78 155 2.0 5.0 0.00 0.00 0.00 68 1017.2
20260505041204 78 153 2.0 5.0 0.00 0.00 0.00 68 1017.0
20260505040704 78 180 2.0 5.0 0.00 0.00 0.00 69 1016.9
20260505040206 77 110 2.0 5.0 0.00 0.00 0.00 71 1016.8
20260505035705 77 128 2.0 5.0 0.00 0.00 0.00 70 1016.9
20260505034706 76 150 1.0 3.0 0.00 0.00 0.00 71 1016.6
20260505034204 77 193 3.0 3.0 0.00 0.00 0.00 69 1016.6
20260505033704 76 195 1.0 3.0 0.00 0.00 0.00 71 1016.7
20260505032706 74 166 1.0 2.0 0.00 0.00 0.00 75 1016.7
20260505032204 73 98 2.0 3.0 0.00 0.00 0.00 77 1016.7
20260505031704 72 5 1.0 5.0 0.00 0.00 0.00 80 1016.9
20260505031204 70 76 1.0 5.0 0.00 0.00 0.00 82 1016.9
20260505030704 70 330 1.0 2.0 0.00 0.00 0.00 84 1016.9
20260505030204 69 124 2.0 2.0 0.00 0.00 0.00 86 1016.9
20260505025205 68 345 1.0 3.0 0.00 0.00 0.00 88 1017.0
20260505024704 68 271 0.0 2.0 0.00 0.00 0.00 88 1017.0
20260505023705 68 317 2.0 3.0 0.00 0.00 0.00 89 1017.1
20260505022705 67 309 2.0 5.0 0.00 0.00 0.00 91 1016.9
20260505022205 67 129 2.0 3.0 0.00 0.00 0.00 92 1016.9
20260505021204 67 173 1.0 3.0 0.00 0.00 0.00 92 1016.6
20260505020705 67 247 1.0 3.0 0.00 0.00 0.00 92 1016.6
20260505020203 67 303 1.0 3.0 0.00 0.00 0.00 93 1016.7
20260505014706 66 65 1.0 3.0 0.00 0.00 0.00 95 1016.6
20260505014204 66 74 1.0 3.0 0.00 0.00 0.00 95 1016.6
20260505013704 65 152 1.0 3.0 0.00 0.00 0.00 95 1016.6
20260505013204 65 138 1.0 3.0 0.00 0.00 0.00 95 1016.6
20260505012704 65 225 1.0 3.0 0.00 0.00 0.00 95 1016.8
20260505012204 65 144 1.0 3.0 0.00 0.00 0.00 95 1016.6
20260505011704 65 145 2.0 3.0 0.00 0.00 0.00 95 1016.5
20260505011204 65 146 1.0 3.0 0.00 0.00 0.00 95 1016.6
20260505010704 65 142 1.0 3.0 0.00 0.00 0.00 95 1016.6
20260505010204 64 117 1.0 3.0 0.00 0.00 0.00 95 1016.6
20260505004704 65 109 1.0 3.0 0.00 0.00 0.00 94 1016.8
20260505004204 65 117 1.0 5.0 0.00 0.00 0.00 94 1016.6
20260505003705 65 136 1.0 5.0 0.00 0.00 0.00 94 1016.9
20260505003205 65 100 1.0 3.0 0.00 0.00 0.00 94 1016.6
20260505002204 65 134 1.0 5.0 0.00 0.00 0.00 94 1016.6
20260505001204 65 116 2.0 3.0 0.00 0.00 0.00 93 1016.6
20260505000704 65 80 1.0 3.0 0.00 0.00 0.00 93 1016.8
20260504235705 65 212 2.0 3.0 0.00 0.00 0.00 93 1016.6
20260504235204 65 225 0.0 3.0 0.00 0.00 0.00 93 1016.6
20260504234204 65 149 2.0 3.0 0.00 0.00 0.00 92 1016.6
20260504233704 65 74 2.0 3.0 0.00 0.00 0.00 91 1016.6
20260504233204 66 184 1.0 5.0 0.00 0.00 0.00 91 1016.6
20260504232705 66 162 1.0 7.0 0.00 0.00 0.00 91 1016.6
20260504232204 66 120 2.0 3.0 0.00 0.00 0.00 90 1016.9
20260504231704 66 124 1.0 5.0 0.00 0.00 0.00 90 1016.6
20260504231204 66 132 3.0 5.0 0.00 0.00 0.00 90 1016.9
20260504230704 66 352 2.0 5.0 0.00 0.00 0.00 90 1016.8
20260504230204 66 119 2.0 5.0 0.00 0.00 0.00 89 1016.8
20260504225704 66 130 2.0 5.0 0.00 0.00 0.00 89 1016.9
20260504225204 67 161 2.0 7.0 0.00 0.00 0.00 89 1016.9
20260504224704 67 134 4.0 7.0 0.00 0.00 0.00 90 1016.8
20260504224204 67 194 1.0 3.0 0.00 0.00 0.00 89 1016.9
20260504223704 67 215 3.0 8.0 0.00 0.00 0.00 89 1016.9
20260504223204 67 128 3.0 8.0 0.00 0.00 0.00 89 1016.8
20260504222205 66 14 1.0 3.0 0.00 0.00 0.00 89 1016.9
20260504221704 66 139 2.0 5.0 0.00 0.00 0.00 89 1017.3
20260504221204 66 127 3.0 5.0 0.00 0.00 0.00 89 1017.0
20260504220704 66 158 2.0 6.0 0.00 0.00 0.00 88 1017.3
20260504220204 66 143 3.0 5.0 0.00 0.00 0.00 88 1017.1
20260504215704 67 109 2.0 5.0 0.00 0.00 0.00 87 1017.2